www.pogodaiklimat.ru

Погода и климат >> Архив погоды >> Доминиканская Республика >> Puerto Plata


ПОГОДА в Puerto Plata

  • Прогноз погоды в Puerto Plata
  • Монитор погоды в Puerto Plata
  • Климат города

АРХИВ ПОГОДЫ в Puerto Plata

Время (UTC), дата Ветер
(напр.,м/с)
 
Видим.   Явления Облачность Т
(С)
Тd
(С)
f
(%)
Тe
(С)
Тes
(С)
Комфортность P
(гПа)
Po
(гПа)
Тmin
(С)
Tmax
(С)
R
(мм)
R24
(мм)
S
(см)
06 8.08 штиль 0 10 км пыль {туман} 1/1 540 м
[Cu med, cong]
+26.3 +24.8 91 +37 +37 очень
душно
1018.2 1018.0 +24.0 +34.8
09 8.08 штиль 0 10 км пыль {туман} 3/3 500 м
[Cu med, cong]
+25.4 +24.4 94 +35 +35 очень
душно
1017.2 1017.0
12 8.08 штиль 0 10 км пыль {туман} 3/3 540 м
[Cu med, cong]
+25.6 +23.9 90 +35 +38 очень
душно
1018.2 1018.0 +23.8 +34.8
15 8.08 В 4 10 км пыль {туман} 3/3 660 м
[Cu med, cong]
+32.1 +25.0 66 +46 +54 опасность
перегрева
1018.5 1019.0
18 8.08 В 4 10 км пыль {туман} 3/3 660 м
[Cu med, cong]
+32.1 +25.0 66 +46 +55 опасность
перегрева
1018.5 1019.0
00 9.08 В 5 10 км пыль {туман} 1/1 600 м
[Cu med, cong]
+27.9 +24.6 82 +39 +39 очень
душно
1017.5 1018.0 +23.8 +34.5
09 9.08 штиль 0 10 км пыль {туман} 1/1 540 м
[Cu med, cong]
+23.6 +22.7 95 +31 +31 очень
душно
1017.2 1017.0
12 9.08 штиль 0 10 км пыль {туман} 1/1 540 м
[Cu med, cong]
+24.5 +23.1 92 +33 +37 очень
душно
1017.8 1018.0 +22.5 +34.5
15 9.08 В 4 10 км пыль {туман} 3/3 750 м
[Cu med, cong]
+32.4 +22.6 56 +42 +51 опасность
перегрева
1018.0 1018.0
18 9.08 СВ 5 10 км пыль {туман} 3/3 750 м
[Cu med, cong]
+31.8 +25.4 69 +46 +53 опасность
перегрева
1016.7 1017.0 +22.5 +34.0
21 9.08 СВ 5 10 км пыль {туман} 4/4 800 м
[Cu Sc]
+31.6 +25.0 68 +45 +47 опасность
перегрева
1015.5 1016.0
00 10.08 штиль 0 10 км пыль {туман} 4/4 720 м
[]
+28.2 +24.5 80 +40 +40 очень
душно
1016.1 1016.0 +34.2
03 10.08 штиль 0 10 км пыль {туман} 5/5 540 м
[Cb cap]
+26.4 +25.6 95 +39 +39 очень
душно
1017.5 1018.0
06 10.08 штиль 0 10 км пыль {туман} 4/4 600 м
[Sc]
+24.2 +22.8 92 +32 +32 очень
душно
1016.9 1017.0 +22.5 +34.2
09 10.08 штиль 0 10 км пыль {туман} 5/5 540 м
[Cb cap]
+23.8 +22.7 94 +31 +31 очень
душно
1015.7 1016.0
12 10.08 штиль 0 10 км пыль {туман} 6/4 660 м
[Cu med, cong Ci fib]
+26.2 +23.5 85 +36 +38 очень
душно
1016.9 1017.0 +24.0 +34.2
15 10.08 В 5 10 км пыль {туман} 5/4 720 м
[Cu med, cong Ci fib]
+33.6 +23.0 54 +44 +49 опасность
перегрева
1016.9 1017.0
18 10.08 СВ 7 10 км пыль {туман} 5/4 800 м
[Cu med, cong Ci fib]
+32.6 +25.5 66 +47 +50 опасность
перегрева
1015.7 1016.0 +24.0 +34.6
00 11.08 В 3 14 км пыль {туман} 6/5 600 м
[Cb cap Ci]
+28.2 +23.2 74 +38 +38 очень
душно
1016.3 1016.0 +24.0 +34.6
03 11.08 В 3 14 км пыль {туман} 5/3 540 м
[Cu med, cong Ac trans Ci]
+26.1 +22.9 83 +35 +35 очень
душно
1017.8 1018.0
06 11.08 штиль 0 14 км пыль {туман} 4/3 540 м
[Cu med, cong Ci fib]
+26.0 +22.8 83 +35 +35 очень
душно
1016.1 1016.0 +24.0 +34.6
12 11.08 штиль 0 14 км пыль {туман} 3/3 600 м
[Cb cap Ci fib]
+26.1 +23.2 84 +35 +38 очень
душно
1017.3 1017.0 +23.9 +34.6
15 11.08 СВ 6 14 км пыль {туман} 4/1 750 м
[Cu med, cong Ci fib]
+32.0 +24.6 65 +45 +51 опасность
перегрева
1017.6 1018.0
18 11.08 В 8 14 км пыль {туман} 3/3 750 м
[Cu med, cong]
+33.0 +25.1 63 +47 +49 опасность
перегрева
1017.1 1017.0 +23.9 +35.0
21 11.08 В 8 14 км пыль {туман} 4/4 540 м
[Cb cap]
+31.3 +24.8 68 +44 +45 опасность
перегрева
1016.1 1016.0
00 12.08 В 4 14 км пыль {туман} 6/4 540 м
[Cu Sc Cs]
+28.3 +24.4 79 +40 +40 очень
душно
1016.8 1017.0 +23.9 +35.0
03 12.08 штиль 0 14 км пыль {туман} 3/3 540 м
[Cu med, cong]
+27.2 +24.5 85 +38 +38 очень
душно
1019.2 1019.0
09 12.08 штиль 0 14 км пыль {туман} 1/1 480 м
[Cu hum]
+26.0 +23.3 85 +35 +35 очень
душно
1017.3 1017.0
15 12.08 ЮВ 5 16 км 4/4 660 м
[Cu med, cong]
+33.4 +25.1 62 +47 +53 опасность
перегрева
1019.1 1019.0
18 12.08 В 8 16 км 6/4 600 м
[Cb cap Cs]
+33.1 +25.5 64 +48 +50 опасность
перегрева
1018.2 1018.0 +24.2 +34.2
21 12.08 В 5 16 км 8/5 540 м
[Cb cap Cs]
+31.7 +25.6 70 +46 +48 опасность
перегрева
1016.9 1017.0
00 13.08 В 5 16 км 8/5 540 м
[Cb cap Cs]
+31.7 +25.6 70 +46 +46 опасность
перегрева
1016.9 1017.0
03 13.08 штиль 0 16 км 5/1 480 м
[Cu med, cong Ci]
+26.2 +24.8 92 +37 +37 очень
душно
1019.1 1019.0
06 13.08 штиль 0 16 км 6/4 450 м
[Cu Sc Ci]
+25.2 +24.6 96 +35 +35 очень
душно
1018.1 1018.0 +24.2 +35.1
09 13.08 штиль 0 8000 м слабый дождь 8/8 450 м
[Cu Sc]
+23.0 +22.9 99 +32 +32 очень
душно
1017.0 1017.0 0.8
12 13.08 штиль 0 16 км {дождь} 4/4 480 м
[Cu Sc]
+25.4 +24.3 94 +35 +38 очень
душно
1017.9 1018.0 +23.0 +35.1 0.0
15 13.08 С 3 16 км в посл. час дождь 6/5 540 м
[Cu Sc As op]
+28.2 +24.2 79 +39 +46 очень
душно
1018.8 1019.0 1
18 13.08 СВ 5 16 км в посл. час дождь 8/5 540 м
[Cu Sc Ac As]
+29.0 +25.3 80 +42 +45 опасность
перегрева
1017.2 1017.0 +23.0 +32.7 0.4
21 13.08 В 5 16 км 8/8 540 м
[Cu Sc]
+27.2 +25.0 88 +39 +40 очень
душно
1015.6 1016.0
00 14.08 В 4 16 км 6/6 500 м
[Cu Sc]
+27.8 +24.6 83 +39 +39 очень
душно
1015.9 1016.0 +23.0 +32.7
03 14.08 штиль 0 5000 м дождь 9/9 450 м
[Cu Sc]
+25.2 +24.8 98 +36 +36 очень
душно
1016.7 1017.0 3
06 14.08 штиль 0 8000 м слабый дождь 9/9 450 м
[Cu Sc]
+23.8 +22.4 92 +31 +31 очень
душно
1015.9 1016.0 +23.0 +32.7 10
09 14.08 штиль 0 8000 м гроза, ливневой дождь 9/8 420 м
[Cb cap As op]
+24.2 +23.9 98 +33 +33 очень
душно
1015.5 1016.0 7
12 14.08 штиль 0 8000 м гроза, ливневой дождь 9/8 300 м
[Cb cap As op]
+24.6 +24.0 96 +34 +34 очень
душно
1016.1 1016.0 +23.6 +32.7 6
15 14.08 штиль 0 8000 м гроза, ливневой дождь 9/8 480 м
[Cb cap As op]
+24.0 +23.7 98 +33 +35 очень
душно
1017.0 1017.0 8
18 14.08 В 3 16 км {гроза, дождь} 9/5 540 м
[Cb cap Cs]
+27.4 +25.0 87 +39 +46 очень
душно
1015.8 1016.0 +23.6 +28.4 0.2
21 14.08 В 4 16 км 8/5 540 м
[Cb cap Cs]
+29.2 +25.5 80 +43 +44 опасность
перегрева
1014.8 1015.0
00 15.08 В 4 16 км 6/3 600 м
[Cu med, cong Ci fib]
+27.0 +25.4 91 +39 +39 очень
душно
1015.0 1015.0 +23.6 +30.4
03 15.08 В 2 16 км {дождь} 6/4 540 м
[Cu med, cong Ci fib]
+25.1 +24.3 95 +35 +35 очень
душно
1016.4 1016.0 0.5

 

Местоположение метеостанции Puerto Plata (Доминиканская Республика): широта 19.75 долгота -70.55 высота над уровнем моря 5 м.

В архиве по умолчанию представлена погода в Puerto Plata за последнюю неделю. Архивные данные за месяц целиком и за предыдущие месяцы, начиная с января 2011 года, Вы можете получить, выбрав интересующий диапазон дат из раскрывающегося списка и нажав кнопку "Ввод!".


*Определитесь, кто Вы:
робот инопланетянин человек

Внимание! Время в таблицах - всемирное. Для получения местного времени необходимо прибавить поправку, которая в Puerto Plata равна -4 ч.

Смотрите также архив погоды в соседних городах и на ближайших метеорологических станциях:

Погода в Santiago (Доминиканская Республика) (37 км)
Погода в Sabana De La Mar (Доминиканская Республика) (145 км)
Погода в Santo Domingo (Доминиканская Республика) (163 км)
Погода в Las Americas (Доминиканская Республика) (174 км)
Погода в Barahona (Доминиканская Республика) (182 км)
Погода в La Romana Int Airport (Доминиканская Республика) (224 км)
Погода в Punta Cana (Доминиканская Республика) (265 км)
Погода в Punta de Maisi (Куба) (380 км)
Погода в Punta Lucrecia (Куба) (547 км)
Погода в Cabo Lurecia (Куба) (548 км)

Пояснения к столбцам:

Ветер - указаны скорость ветра в м/с - средняя за 10 мин, порывы в срок и между сроками (в фигурных скобках) и направление, откуда дует ветер: С - северный, СВ - северо-восточный, В - восточный, ЮВ - юго-восточный, Ю - южный, ЮЗ - юго-западный, З - западный, СЗ - северо-западный.
Видимость - горизонтальная дальность видимости в метрах или километрах. При видимости от 1 до 10 км при отсутствии осадков обычно наблюдается дымка, при ухудшении видимости до 1 км и менее - туман. В сухую погоду видимость может ухудшаться дымом, пылью или мглою.
Явления - указаны атмосферные явления, наблюдавшиеся в срок или в последний час перед сроком; фигурными скобками обозначены явления, наблюдавшиеся между сроками (за 1-3 часа до срока); квадратными скобками обозначены град или гололедные отложения с указанием их диаметра в мм.
Облачность - указаны через наклонную черту общая и нижняя облачность в баллах и высота нижней границы облаков в метрах; квадратными скобками обозначены формы облаков: Ci - перистые, Cs - перисто-слоистые, Cc - перисто-кучевые, Ac - высококучевые, As - высокослоистые, Sc - слоисто-кучевые, Ns - слоисто-дождевые, Cu - кучевые, Cb - кучево-дождевые. Подробнее классификацию облаков см. в Атласе облаков (PDF).
T - Температура воздуха - температура, измеренная на высоте 2 м над землей.
Td - Температура точки росы - температура, при понижении до которой содержащийся в воздухе водяной пар достигнет насыщения.
f - Относительная влажность воздуха - влажноcть воздуха, измеренная на высоте 2 м над землей.
Te - Эффективная температура - температура, которую ощущает одетый по сезону человек в тени. Характеристика душности погоды. При расчете учитывается влияние влажности воздуха и скорости ветра на теплоощущения человека.
Tes - Эффективная температура на солнце - температура, которую ощущает человек, с поправкой на солнечный нагрев. Характеристика знойности погоды. Зависит от высоты солнца над горизонтом, облачности и скорости ветра. Ночью, в пасмурную погоду, а также при ветре 12 м/с и более поправка равна нулю.
P - Атмосферное давление - приведенное к уровню моря атмосферное давление.
Po - Атмосферное давление - измеренное на уровне метеостанции атмосферное давление.
Tmin - Минимальная температура - минимум температуры воздуха на высоте 2 м над землей.
Tmax - Максимальная температура - максимум температуры воздуха на высоте 2 м над землей.
R - Количество осадков - Количество выпавших осадков за период времени, мм. При наведении курсора мыши на число - период времени, за который выпало указанное количество осадков.
R24 - Количество осадков - Количество выпавших осадков за 24 часа, мм.
S - Снежный покров - Высота снежного покрова, см. При наведении курсора мыши на число - состояние снежного покрова и степень покрытия местности в баллах.